Theta_e
347 345 343 336 332 332 334 336 340 341 343 344 344 343 343 343 339 331 334 334 334 339 339 340 338 337 341 339 330 327 329 332 328 333 335 339 326 327 326 330 328 323 318
346 346 343 339 332 332 331 332 333 336 339 341 342 342 342 338 331 335 334 334 335 334 337 335 335 337 337 338 325 324 338 333 337 340 329 321 330 341 334 326 321 319 339
346 346 343 343 334 332 331 332 332 333 334 334 334 335 333 333 339 340 333 339 339 337 335 336 336 337 331 327 325 327 331 338 338 339 340 335 333 326 329 319 326 322 331
344 347 347 344 338 334 332 332 334 335 336 337 337 336 337 338 339 341 333 334 338 331 339 338 340 332 327 324 340 332 335 336 336 332 340 337 338 327 333 320 341 332 335
344 345 344 344 341 336 333 332 333 334 335 337 338 338 338 339 340 335 337 337 340 339 338 337 334 328 329 335 335 335 337 334 334 338 334 341 339 333 329 321 329 338 335
343 345 344 344 342 340 334 333 333 333 334 336 338 339 338 337 338 338 341 340 339 339 338 339 330 327 340 336 333 325 332 330 330 336 338 332 336 327 329 323 332 327 322
343 344 345 345 343 341 340 335 334 334 334 338 340 338 337 338 338 339 338 340 341 339 339 334 338 328 331 335 336 334 336 336 335 336 334 335 334 323 334 325 322 329 335
342 343 344 345 344 342 342 340 336 337 337 340 341 339 337 338 338 339 340 339 340 341 337 340 332 330 331 339 341 343 343 341 339 338 336 333 333 325 334 325 323 324 333
342 342 347 348 345 343 342 342 342 341 340 342 342 341 339 337 336 336 338 341 340 340 340 333 333 337 335 339 341 340 340 339 338 338 338 339 329 328 326 326 328 324 323
341 342 346 344 345 344 341 342 342 341 341 342 341 341 341 339 337 338 335 337 338 339 339 339 336 338 333 339 340 340 340 339 339 341 340 341 337 331 329 327 326 327 324
341 341 340 340 340 340 340 340 340 341 340 341 340 340 340 343 341 340 339 334 337 340 340 340 339 335 335 334 335 338 340 340 340 341 340 338 338 336 328 327 328 326 328
340 340 339 341 339 340 339 339 339 340 341 341 341 340 339 341 338 338 336 335 335 337 338 341 340 339 335 343 341 336 342 338 341 342 341 341 342 343 341 333 327 328 326
345 344 345 342 343 339 340 339 338 338 340 341 341 340 342 338 338 338 338 336 337 339 343 344 340 341 341 338 342 340 339 338 341 342 343 343 343 343 342 340 336 330 329
347 347 345 344 342 340 340 339 338 337 338 340 340 341 339 339 338 339 336 337 341 340 340 340 340 339 339 342 337 333 331 337 342 343 343 343 343 343 343 342 341 339 336
347 348 347 345 341 337 337 338 340 337 336 336 336 337 335 337 337 338 337 340 341 339 338 338 338 340 339 338 341 337 334 332 339 340 340 343 342 342 343 344 344 343 340
348 348 347 344 339 337 338 339 341 338 335 336 336 337 338 335 335 336 338 341 340 338 336 337 341 341 339 340 340 340 336 335 334 334 336 340 342 342 343 343 342 343 340
348 348 344 342 338 338 339 340 341 339 336 335 335 340 338 335 334 336 339 341 340 339 339 343 340 341 338 338 339 341 341 340 343 342 339 339 343 343 341 342 341 342 340
340 337 341 338 336 340 338 341 340 340 340 338 338 341 341 337 335 337 338 341 341 340 339 340 340 339 339 338 339 338 338 341 343 341 344 340 340 342 342 343 341 341 341
337 337 337 336 336 341 342 343 343 344 345 343 340 342 342 340 339 341 340 341 339 337 340 340 338 340 339 337 339 339 338 338 339 342 343 343 343 343 343 344 344 343 341
336 336 336 336 339 343 343 342 341 340 340 343 343 342 341 341 341 341 340 340 340 341 340 338 336 336 336 337 339 340 341 339 340 342 343 343 343 343 342 342 343 344 343
339 335 335 337 341 342 341 336 335 338 340 340 343 342 343 342 343 340 341 340 340 339 338 337 336 336 337 338 341 342 340 338 339 343 342 342 343 342 341 342 343 342 343
342 335 335 336 341 338 333 333 334 337 341 343 343 343 343 340 340 341 342 342 341 341 339 338 337 338 337 341 342 342 343 342 342 343 343 343 343 342 343 343 342 343 342
345 336 335 335 338 340 332 335 336 335 339 342 342 342 342 342 342 341 340 339 338 338 338 339 338 337 339 341 340 343 340 341 341 339 338 339 339 340 340 343 343 343 342
344 340 336 335 338 339 334 334 341 340 336 339 341 341 340 340 341 341 342 342 343 343 339 339 339 341 343 342 342 341 340 340 343 342 340 342 342 342 342 342 343 342 342
344 343 337 336 336 338 337 333 339 341 339 336 336 339 339 339 339 338 339 338 340 341 342 342 344 342 341 341 340 342 342 342 342 343 342 340 340 340 341 342 342 342 340
345 346 340 336 337 338 337 335 336 339 338 336 336 337 337 338 339 340 331 333 339 338 339 339 339 339 339 339 340 341 341 341 341 342 342 341 340 340 339 340 340 340 339
Wind_Speed
18 16 17 19 19 19 17 15 14 14 15 16 15 12 10 8 6 6 6 7 9 9 9 8 9 10 11 10 8 10 10 12 14 15 15 12 11 12 12 13 13 12 14
21 18 16 16 18 18 18 17 16 15 14 14 13 12 10 7 6 6 7 8 9 9 8 7 8 9 10 9 9 12 14 11 15 15 13 11 13 13 11 12 13 13 13
20 18 17 16 17 17 17 17 16 15 15 14 13 12 10 8 7 7 7 8 7 8 7 9 9 10 9 9 14 15 15 15 13 12 12 10 11 11 10 12 14 14 14
19 18 18 16 16 16 17 17 16 15 14 13 12 11 9 8 7 7 7 7 6 8 9 9 8 9 10 13 14 15 16 14 12 13 11 10 10 11 10 12 13 12 12
19 19 17 16 15 15 16 17 17 16 14 13 12 11 11 8 7 7 7 7 7 8 8 8 6 9 11 13 14 14 14 12 12 12 11 10 10 10 10 12 11 11 11
17 17 16 15 15 14 15 15 16 15 13 11 11 10 8 10 9 7 8 8 8 7 8 8 6 10 13 13 13 15 15 13 13 11 10 10 10 9 9 10 10 10 9
16 16 16 14 13 14 14 15 16 15 15 13 12 10 10 12 9 6 9 6 7 8 7 6 7 11 14 14 14 13 13 11 10 9 8 8 8 10 10 8 9 9 8
15 16 15 14 13 13 14 15 15 15 15 14 12 12 11 11 8 8 7 7 5 6 7 7 8 11 13 13 12 10 9 9 7 7 6 6 7 8 10 7 8 7 8
15 15 14 14 13 13 14 14 14 14 15 15 13 12 11 11 10 8 8 7 7 7 7 7 9 10 12 13 11 8 8 8 8 7 6 5 5 6 7 7 6 7 6
14 14 14 14 15 14 14 14 14 14 14 14 14 13 12 11 10 8 8 8 8 8 8 9 8 11 12 13 11 9 8 8 9 6 5 5 4 4 6 6 6 6 6
14 14 13 12 13 12 15 15 15 14 13 13 13 13 12 11 10 10 9 9 9 8 9 10 10 10 11 12 13 11 10 8 8 6 7 6 4 3 3 5 5 6 6
15 14 13 13 13 10 13 15 16 15 14 14 14 13 13 12 12 11 10 10 10 9 8 9 10 11 12 10 11 14 12 11 8 7 7 6 5 3 3 3 5 6 6
13 12 13 15 14 8 9 14 16 17 16 15 14 14 13 13 13 12 11 11 10 9 7 7 9 10 12 13 12 13 14 13 11 10 7 6 6 6 5 4 5 5 6
11 9 10 16 11 14 11 13 17 17 16 15 14 13 14 13 14 13 12 12 11 10 9 9 9 9 10 13 15 16 16 16 14 14 13 10 8 8 9 7 6 5 6
11 11 10 15 14 17 19 15 16 17 16 15 15 14 13 14 13 13 13 13 12 11 11 10 9 7 9 10 13 16 16 18 18 17 17 14 13 10 11 10 9 8 8
11 10 11 11 15 7 10 13 15 17 17 16 16 13 12 13 14 15 15 14 15 11 12 12 10 9 9 9 10 14 16 17 18 19 18 19 17 12 10 10 9 10 8
9 11 11 9 7 4 8 11 19 20 20 19 19 16 19 19 17 14 16 18 20 15 14 13 12 12 9 9 11 13 15 17 18 17 17 18 18 17 15 13 11 11 11
8 9 10 9 9 6 8 5 7 13 20 26 23 23 20 22 22 20 20 18 21 21 18 15 14 14 13 13 13 15 18 21 20 21 20 19 19 18 17 16 14 12 13
8 8 9 9 9 8 7 7 8 12 15 18 24 25 25 24 24 20 20 19 17 19 19 17 17 17 16 15 17 17 18 21 20 20 21 21 20 19 19 17 16 16 15
7 7 9 9 9 7 5 7 9 13 15 18 19 20 19 26 24 21 19 18 19 19 20 20 19 18 17 18 18 19 20 19 19 21 22 23 24 23 22 20 20 18 18
5 7 9 10 10 8 5 4 4 7 9 9 8 13 14 17 23 23 19 19 20 22 22 20 20 20 21 18 19 18 17 20 20 21 21 22 24 24 24 25 23 18 18
6 7 9 10 10 8 5 1 3 5 3 5 6 9 13 15 19 20 18 19 20 21 23 23 21 21 20 16 16 14 11 16 18 20 21 22 22 22 20 21 21 20 19
10 8 8 11 11 10 6 3 1 4 4 5 7 4 5 12 19 13 13 14 16 18 24 25 21 22 19 16 15 12 7 7 8 15 16 16 18 19 20 19 18 19 18
10 9 9 10 12 12 11 6 3 2 2 2 5 5 4 5 8 9 9 10 11 13 13 16 18 19 16 15 15 18 17 9 5 4 6 6 6 7 10 13 14 15 15
12 9 10 10 13 13 12 9 6 3 1 1 2 5 6 5 5 4 7 6 10 9 9 12 13 14 14 16 17 18 17 18 18 9 6 8 6 5 5 7 9 8 9
14 9 11 12 12 12 12 10 10 8 6 2 2 4 4 5 6 4 4 8 10 11 14 13 13 15 17 17 18 19 19 19 19 18 11 8 8 5 6 6 4 6 6
Wind_Direction
163 167 165 159 159 161 165 163 159 157 157 164 165 157 157 154 144 132 136 143 143 145 146 138 135 128 134 132 125 130 126 116 117 112 117 115 112 125 121 129 118 118 121
160 165 166 162 159 159 160 161 160 159 155 155 159 160 161 162 150 146 146 143 142 147 143 142 145 136 136 144 128 130 126 128 115 117 122 114 121 122 120 119 120 122 112
159 161 166 166 165 162 159 158 158 156 155 152 157 162 162 159 151 145 152 148 155 153 152 140 138 141 140 136 129 130 130 126 125 127 118 116 123 127 126 125 119 127 125
162 162 165 170 169 168 164 163 162 161 158 154 158 160 157 154 149 158 155 148 150 146 146 141 143 144 142 139 133 127 128 129 129 128 124 115 124 123 125 128 125 127 118
166 166 168 171 170 171 172 171 168 167 165 159 159 162 155 157 160 164 153 157 156 147 150 143 155 144 138 140 142 140 136 137 136 129 129 126 128 130 131 126 134 130 129
164 167 169 172 174 176 179 179 177 172 170 169 174 177 171 165 151 155 165 165 168 151 153 153 161 153 147 151 149 146 139 136 132 130 132 131 134 141 136 139 143 145 133
168 170 174 176 178 180 183 184 185 176 178 180 183 185 172 168 162 151 159 158 167 158 159 172 160 163 162 155 150 147 145 137 134 130 134 137 137 137 137 143 150 152 150
176 176 175 178 185 184 189 189 188 188 188 187 190 192 188 189 188 182 190 176 177 166 173 176 171 168 167 163 165 163 165 169 154 146 137 132 140 138 146 149 153 157 160
187 183 178 183 191 192 196 196 194 197 196 194 194 199 195 195 194 193 190 193 191 178 175 182 181 177 176 175 177 170 164 161 162 160 152 141 132 144 150 156 157 163 174
192 193 188 192 194 200 199 202 203 202 205 201 198 203 201 202 205 200 195 199 195 182 187 186 190 187 189 188 197 199 190 173 169 175 179 173 155 156 167 171 174 178 182
200 204 201 207 213 219 211 205 206 206 209 204 203 205 211 200 204 206 207 204 203 192 185 190 195 202 206 208 212 209 207 206 201 207 199 185 155 143 171 190 191 192 197
211 215 218 218 213 218 225 215 209 203 204 205 205 204 212 216 210 209 207 207 207 201 200 189 194 205 212 211 219 213 219 219 208 200 206 213 209 213 214 214 214 216 215
218 227 246 234 227 228 235 224 219 212 203 207 207 211 214 213 214 212 213 210 206 209 201 201 194 206 215 218 219 219 224 225 223 219 220 230 235 241 232 224 226 226 231
229 234 251 252 247 257 249 249 226 222 215 210 213 219 216 216 216 218 217 215 215 215 216 211 211 207 217 221 226 229 229 228 230 235 238 242 246 256 242 235 236 248 255
244 243 256 271 280 288 252 233 222 214 220 220 215 221 228 227 223 229 214 213 217 222 219 215 209 208 220 226 227 233 233 234 235 238 242 241 258 267 244 245 249 245 246
254 246 245 276 304 309 195 198 204 217 218 219 216 216 229 231 226 226 230 228 228 229 218 210 212 213 217 221 234 232 235 240 243 246 247 243 248 260 252 248 257 244 252
255 250 251 249 265 211 155 169 205 216 221 226 231 226 225 231 230 226 226 236 231 231 219 219 217 213 216 226 231 232 236 240 246 249 251 244 244 255 255 256 254 243 251
271 250 233 234 228 220 192 168 196 220 238 238 231 230 232 228 225 229 230 232 237 233 221 223 227 233 240 243 242 247 249 243 244 254 252 248 250 255 257 260 249 246 248
294 221 231 231 224 229 212 226 243 246 244 236 238 241 233 220 223 231 230 237 232 218 221 231 237 237 241 256 262 265 250 246 251 248 248 249 253 255 255 257 251 253 252
302 220 225 226 220 224 244 277 286 278 266 252 244 238 233 220 226 228 225 225 225 224 231 236 242 246 254 259 269 264 256 244 248 251 247 248 253 254 254 254 253 255 257
286 254 235 214 210 202 223 266 286 289 276 247 229 217 217 221 229 217 213 220 229 236 236 238 242 250 256 265 266 261 246 234 252 251 251 251 254 255 255 254 253 254 255
244 235 239 224 216 204 205 219 350 357 30 165 177 203 194 198 197 208 226 237 239 242 237 238 243 251 257 262 255 245 235 237 242 247 249 249 252 253 254 256 252 251 257
233 231 239 225 224 221 211 211 6 25 46 166 160 154 201 230 202 220 235 243 250 253 244 237 243 248 257 246 241 227 231 236 228 244 249 251 249 248 249 247 248 248 253
222 236 232 226 228 224 219 226 271 324 41 124 165 159 158 170 195 231 236 244 255 253 236 233 245 250 243 241 241 234 238 244 223 219 240 235 233 239 239 240 241 245 253
222 236 229 232 229 226 229 232 242 275 278 228 170 160 166 186 218 224 246 250 260 249 243 235 229 227 239 239 242 245 245 244 244 236 223 233 247 264 250 248 240 235 227
213 230 226 228 226 224 226 241 242 272 291 286 262 244 232 219 227 228 264 280 261 252 246 244 248 249 251 253 246 248 251 249 248 238 225 224 238 242 254 250 233 234 227